Location: Petrozavodsk
(61.7955°N, 34.3748°E)
Time: 01:19:52
(UTC+03:00)

Envisat - Pass Details

Date: 30 March 2023
Orbit: 763 x 765 km, 98.2° (Epoch: 28 May)

Event Time Altitude Azimuth Distance (km) Brightness Sun altitude
Rises 04:19:47 0° 18° (NNE) 3,250 7.2 -13.1°
Reaches altitude 10° 04:22:15 10° 26° (NNE) 2,319 6.5 -12.9°
Maximum altitude 04:27:04 41° 97° (E) 1,112 4.3 -12.4°
Drops below altitude 10° 04:31:51 10° 167° (SSE) 2,303 5.3 -12.0°
Sets 04:34:17 0° 175° (S) 3,225 6.0 -11.7°
